Temp
-9 -9 -9 -9 -9 -9 -9 -9 -9 -10 -9 -10 -9 -9 -10 -10 -10 -10 -10 -10 -10 -10 -10 -10 -10 -10 -10 -11 -11 -11 -10 -11 -11 -11 -11 -11 -11 -11 -11 -11 -10 -10 -10
-9 -9 -9 -9 -9 -9 -9 -9 -9 -9 -9 -9 -9 -9 -9 -10 -10 -10 -9 -9 -10 -10 -11 -11 -10 -10 -11 -11 -10 -11 -10 -11 -11 -11 -11 -12 -12 -12 -12 -11 -11 -11 -11
-9 -9 -9 -9 -9 -9 -9 -9 -9 -9 -9 -9 -9 -9 -9 -9 -9 -10 -10 -10 -10 -11 -10 -10 -10 -10 -11 -11 -10 -10 -11 -11 -11 -11 -12 -12 -12 -12 -12 -12 -12 -12 -12
-9 -9 -9 -9 -10 -9 -9 -9 -9 -9 -9 -9 -9 -9 -9 -9 -10 -10 -10 -10 -10 -10 -10 -10 -10 -10 -10 -11 -11 -11 -11 -12 -12 -12 -13 -13 -12 -12 -12 -12 -12 -12 -12
-9 -9 -9 -9 -9 -9 -9 -9 -9 -9 -9 -9 -10 -10 -10 -10 -10 -10 -10 -10 -10 -10 -11 -11 -11 -11 -11 -11 -12 -12 -12 -13 -13 -13 -13 -13 -13 -13 -13 -13 -13 -13 -13
-9 -9 -9 -9 -9 -9 -9 -9 -9 -10 -10 -10 -10 -10 -10 -10 -10 -10 -11 -11 -11 -11 -11 -11 -12 -12 -12 -12 -12 -12 -12 -13 -13 -13 -13 -13 -13 -13 -13 -13 -13 -13 -13
-9 -9 -9 -9 -9 -9 -9 -9 -10 -10 -10 -10 -10 -10 -10 -10 -11 -11 -11 -11 -11 -11 -12 -12 -12 -12 -12 -13 -13 -13 -13 -13 -13 -13 -13 -13 -13 -13 -13 -13 -14 -14 -14
-9 -9 -9 -9 -9 -9 -10 -10 -10 -10 -11 -11 -10 -11 -11 -11 -11 -11 -12 -12 -12 -12 -12 -12 -12 -12 -13 -13 -13 -13 -14 -14 -14 -14 -14 -14 -14 -14 -14 -14 -13 -13 -13
-9 -9 -10 -9 -9 -10 -10 -10 -10 -11 -11 -11 -11 -11 -11 -11 -11 -11 -12 -12 -12 -12 -13 -13 -13 -13 -13 -13 -13 -14 -14 -14 -14 -14 -14 -14 -14 -14 -14 -14 -14 -14 -14
-10 -9 -10 -9 -10 -10 -10 -11 -11 -11 -11 -11 -12 -12 -12 -12 -12 -12 -12 -12 -12 -13 -13 -13 -14 -14 -14 -14 -14 -14 -14 -14 -15 -15 -15 -15 -15 -15 -14 -14 -14 -14 -14
-10 -10 -10 -10 -10 -10 -11 -11 -11 -11 -11 -12 -12 -12 -12 -12 -12 -12 -13 -13 -12 -13 -13 -14 -14 -14 -14 -14 -14 -15 -15 -15 -15 -15 -15 -15 -15 -15 -15 -15 -15 -15 -15
-10 -10 -10 -10 -11 -11 -11 -11 -11 -11 -12 -12 -12 -12 -12 -12 -12 -12 -12 -13 -14 -14 -14 -14 -14 -14 -15 -15 -15 -15 -16 -16 -16 -16 -16 -15 -15 -15 -15 -15 -14 -14 -14
-10 -10 -10 -11 -11 -11 -12 -12 -12 -12 -12 -12 -12 -12 -12 -12 -12 -12 -12 -13 -14 -14 -14 -14 -14 -15 -15 -15 -16 -16 -16 -16 -16 -16 -15 -15 -15 -15 -15 -14 -14 -14 -14
-11 -11 -11 -11 -12 -12 -12 -12 -12 -12 -12 -12 -12 -12 -12 -12 -13 -13 -13 -13 -14 -15 -14 -14 -15 -15 -16 -16 -16 -16 -16 -16 -16 -15 -15 -15 -16 -15 -15 -14 -14 -14 -14
-11 -11 -11 -12 -12 -12 -12 -12 -12 -13 -13 -13 -12 -13 -13 -13 -13 -13 -13 -13 -14 -14 -15 -15 -15 -16 -16 -16 -16 -16 -16 -16 -16 -16 -16 -16 -16 -16 -15 -15 -16 -17 -19
-12 -12 -12 -12 -13 -13 -13 -13 -13 -13 -13 -13 -13 -13 -13 -13 -13 -14 -14 -14 -15 -15 -15 -15 -16 -16 -16 -16 -16 -16 -17 -17 -17 -17 -17 -17 -17 -17 -17 -19 -22 -25 -25
-12 -12 -13 -13 -13 -13 -13 -13 -13 -13 -13 -13 -13 -13 -13 -14 -14 -14 -15 -15 -15 -16 -16 -16 -16 -16 -16 -17 -17 -17 -17 -18 -18 -17 -17 -18 -18 -19 -21 -25 -26 -25 -25
-13 -13 -13 -13 -14 -14 -14 -14 -14 -14 -14 -14 -14 -14 -14 -14 -15 -15 -16 -16 -16 -16 -16 -16 -17 -17 -17 -17 -17 -17 -18 -18 -18 -18 -18 -19 -20 -24 -26 -26 -26 -25 -25
-13 -14 -14 -14 -14 -14 -14 -14 -14 -14 -14 -14 -14 -14 -15 -15 -15 -16 -16 -16 -16 -16 -17 -17 -17 -17 -17 -17 -18 -18 -18 -18 -18 -18 -19 -21 -24 -26 -26 -26 -26 -26 -25
-14 -14 -14 -14 -14 -14 -14 -14 -14 -14 -14 -14 -15 -15 -15 -16 -16 -16 -16 -16 -17 -17 -17 -17 -17 -18 -18 -18 -18 -18 -18 -18 -18 -18 -19 -23 -26 -26 -26 -26 -26 -26 -25
-14 -14 -15 -15 -15 -15 -15 -14 -14 -14 -15 -15 -15 -15 -16 -16 -16 -16 -16 -17 -17 -17 -17 -18 -18 -18 -18 -18 -18 -18 -19 -18 -19 -19 -20 -25 -26 -26 -26 -26 -26 -26 -25
-14 -15 -15 -15 -15 -15 -15 -15 -15 -15 -15 -15 -16 -16 -16 -16 -17 -16 -17 -17 -17 -17 -18 -18 -18 -18 -18 -18 -19 -19 -19 -19 -19 -20 -22 -26 -27 -26 -26 -26 -26 -25 -25
-15 -15 -15 -15 -15 -15 -15 -15 -15 -15 -16 -16 -16 -16 -16 -17 -17 -17 -17 -17 -17 -18 -18 -18 -19 -19 -19 -19 -19 -19 -20 -20 -21 -22 -24 -27 -27 -26 -26 -26 -26 -26 -26
-15 -16 -15 -15 -15 -15 -15 -15 -16 -16 -16 -16 -16 -16 -17 -17 -17 -17 -17 -17 -18 -19 -19 -19 -19 -19 -19 -20 -20 -21 -21 -21 -22 -24 -26 -27 -27 -26 -26 -26 -26 -26 -26
-16 -16 -16 -16 -16 -15 -16 -16 -16 -16 -16 -16 -17 -17 -17 -17 -17 -17 -17 -18 -19 -19 -19 -19 -19 -20 -20 -21 -21 -21 -21 -21 -22 -25 -27 -27 -27 -26 -26 -26 -26 -26 -26
-16 -16 -16 -16 -16 -16 -16 -16 -16 -17 -17 -17 -17 -17 -17 -17 -18 -17 -18 -18 -19 -19 -19 -19 -20 -20 -21 -21 -22 -22 -22 -22 -23 -25 -28 -28 -27 -26 -26 -26 -26 -26 -26
Height
5876 5875 5875 5873 5873 5871 5870 5869 5869 5868 5867 5866 5865 5863 5861 5860 5857 5856 5853 5851 5850 5849 5846 5844 5841 5838 5837 5836 5833 5830 5828 5825 5823 5821 5819 5816 5814 5812 5810 5809 5807 5805 5804
5874 5872 5870 5870 5870 5869 5868 5866 5866 5865 5864 5863 5861 5859 5858 5856 5853 5850 5849 5846 5848 5845 5841 5838 5835 5832 5831 5828 5824 5820 5820 5817 5814 5811 5807 5804 5801 5800 5798 5796 5794 5792 5791
5871 5868 5866 5866 5866 5864 5864 5863 5862 5861 5860 5859 5856 5854 5852 5850 5847 5847 5846 5843 5842 5837 5833 5830 5829 5826 5822 5819 5817 5814 5812 5808 5804 5800 5797 5793 5789 5786 5783 5781 5780 5779 5778
5868 5865 5863 5863 5862 5859 5859 5858 5857 5856 5854 5852 5851 5849 5846 5846 5843 5842 5841 5838 5834 5831 5828 5825 5822 5819 5816 5812 5808 5805 5802 5798 5794 5789 5785 5782 5779 5776 5773 5770 5767 5764 5762
5863 5862 5860 5859 5859 5856 5855 5854 5853 5852 5849 5848 5845 5843 5842 5837 5838 5836 5835 5832 5829 5827 5823 5818 5815 5813 5809 5805 5801 5796 5792 5788 5783 5778 5774 5771 5768 5764 5760 5756 5754 5751 5748
5859 5856 5856 5854 5853 5852 5850 5849 5848 5846 5844 5841 5839 5839 5836 5834 5833 5831 5828 5825 5823 5819 5815 5812 5808 5803 5799 5793 5790 5786 5781 5777 5772 5768 5764 5760 5756 5752 5748 5744 5740 5737 5734
5854 5852 5852 5850 5848 5847 5845 5844 5843 5840 5839 5836 5834 5833 5831 5830 5827 5825 5821 5818 5815 5811 5809 5804 5799 5794 5789 5784 5779 5776 5772 5766 5761 5756 5752 5747 5742 5738 5734 5729 5725 5722 5718
5849 5847 5846 5845 5843 5841 5840 5838 5837 5835 5832 5830 5828 5827 5826 5824 5821 5818 5814 5810 5807 5803 5799 5794 5789 5784 5780 5775 5770 5766 5761 5755 5750 5745 5739 5734 5729 5723 5718 5714 5709 5705 5702
5843 5842 5841 5839 5837 5835 5834 5832 5831 5829 5827 5825 5822 5821 5819 5817 5814 5812 5808 5804 5800 5795 5790 5785 5780 5776 5771 5765 5760 5755 5749 5743 5738 5731 5725 5718 5712 5707 5702 5696 5691 5687 5683
5837 5836 5834 5833 5831 5829 5828 5826 5825 5823 5821 5819 5817 5815 5813 5810 5806 5802 5799 5795 5791 5786 5781 5776 5770 5766 5761 5755 5750 5743 5737 5731 5723 5716 5709 5702 5695 5688 5681 5675 5670 5664 5660
5830 5829 5828 5826 5825 5823 5822 5820 5818 5816 5814 5813 5811 5809 5807 5804 5802 5798 5793 5787 5782 5777 5771 5767 5762 5757 5751 5745 5739 5732 5725 5718 5711 5702 5694 5687 5679 5671 5663 5655 5647 5639 5632
5823 5822 5820 5819 5818 5817 5815 5813 5811 5809 5807 5806 5803 5801 5798 5795 5792 5789 5786 5779 5773 5767 5762 5757 5752 5747 5741 5734 5727 5720 5712 5704 5695 5686 5677 5667 5657 5647 5638 5629 5620 5610 5603
5816 5814 5813 5812 5811 5809 5808 5806 5804 5802 5800 5798 5796 5794 5791 5788 5784 5781 5778 5773 5766 5759 5754 5748 5743 5737 5731 5723 5716 5707 5698 5687 5676 5665 5655 5644 5633 5620 5609 5597 5586 5575 5565
5808 5806 5805 5805 5804 5802 5801 5800 5798 5795 5793 5791 5788 5785 5782 5778 5775 5772 5768 5764 5758 5750 5745 5741 5733 5727 5720 5712 5702 5692 5682 5670 5657 5645 5632 5619 5605 5590 5574 5560 5546 5533 5521
5799 5798 5798 5797 5797 5795 5794 5793 5790 5788 5786 5783 5780 5777 5774 5770 5767 5763 5759 5755 5750 5745 5737 5730 5725 5716 5709 5698 5687 5677 5664 5651 5636 5622 5608 5593 5574 5557 5539 5522 5505 5492 5480
5791 5790 5790 5789 5789 5788 5787 5785 5783 5781 5778 5775 5772 5769 5766 5762 5758 5754 5749 5745 5739 5734 5726 5720 5711 5704 5695 5685 5674 5662 5648 5634 5617 5601 5585 5565 5542 5521 5502 5485 5472 5464 5459
5782 5782 5781 5781 5781 5780 5779 5777 5775 5773 5770 5767 5764 5761 5758 5754 5750 5745 5740 5736 5731 5725 5719 5709 5701 5693 5683 5674 5663 5648 5633 5617 5600 5580 5561 5536 5512 5489 5471 5461 5455 5450 5446
5773 5773 5773 5774 5773 5772 5771 5769 5767 5765 5762 5760 5757 5754 5751 5747 5742 5737 5733 5727 5721 5714 5708 5701 5691 5681 5671 5661 5647 5634 5618 5600 5580 5560 5538 5508 5483 5463 5454 5447 5442 5437 5431
5765 5765 5765 5766 5766 5765 5763 5762 5760 5757 5755 5752 5749 5746 5743 5739 5734 5730 5725 5718 5711 5704 5696 5689 5680 5669 5658 5647 5636 5621 5604 5587 5562 5538 5515 5484 5463 5450 5442 5434 5429 5424 5418
5757 5757 5758 5757 5757 5756 5755 5754 5752 5750 5747 5745 5742 5739 5736 5731 5726 5722 5716 5709 5702 5694 5685 5677 5668 5656 5645 5631 5616 5606 5598 5571 5545 5522 5498 5464 5449 5440 5431 5424 5419 5413 5406
5749 5749 5750 5750 5749 5748 5747 5746 5745 5742 5740 5738 5735 5732 5728 5723 5718 5713 5707 5700 5692 5684 5675 5665 5655 5642 5631 5617 5600 5583 5567 5555 5534 5502 5480 5450 5440 5432 5422 5414 5409 5402 5395
5740 5741 5741 5742 5742 5741 5739 5738 5737 5735 5733 5731 5728 5724 5720 5715 5709 5703 5696 5689 5682 5673 5663 5653 5639 5628 5614 5601 5585 5567 5549 5527 5513 5490 5463 5443 5428 5423 5413 5405 5399 5391 5383
5732 5733 5733 5734 5734 5733 5731 5730 5729 5728 5726 5724 5721 5717 5712 5707 5700 5693 5686 5678 5669 5660 5651 5638 5626 5613 5600 5585 5571 5556 5538 5511 5484 5459 5443 5430 5419 5414 5406 5398 5390 5381 5373
5723 5724 5725 5726 5726 5725 5724 5723 5722 5721 5719 5717 5713 5709 5704 5698 5692 5685 5676 5668 5661 5652 5641 5626 5612 5599 5584 5568 5548 5528 5508 5494 5472 5445 5425 5418 5411 5405 5399 5391 5382 5373 5364
5714 5715 5716 5717 5717 5717 5716 5715 5714 5713 5712 5709 5705 5701 5697 5690 5684 5677 5669 5661 5652 5641 5626 5613 5600 5586 5570 5553 5537 5522 5503 5478 5464 5438 5421 5410 5403 5397 5392 5384 5374 5365 5356
5706 5707 5707 5708 5708 5709 5708 5708 5707 5706 5704 5701 5698 5693 5689 5683 5676 5668 5662 5654 5645 5634 5622 5609 5596 5580 5564 5546 5526 5505 5484 5463 5442 5428 5417 5407 5396 5388 5385 5377 5367 5358 5350
Wind_Speed
12 14 15 17 17 19 19 19 18 18 19 19 20 21 22 23 25 27 28 28 29 29 32 33 36 38 40 39 43 36 43 42 44 44 45 45 45 45 44 44 45 45 46
16 19 20 20 18 17 16 16 17 16 16 17 20 21 21 24 26 26 28 31 30 32 32 33 34 36 37 40 36 37 39 40 44 47 49 51 51 51 52 52 51 50 50
19 21 23 21 15 15 15 17 17 17 17 18 21 21 22 25 27 28 26 28 27 30 30 31 32 34 36 39 41 43 43 43 47 47 48 49 52 54 55 57 59 59 58
21 23 24 18 17 19 19 19 19 19 18 20 20 22 23 23 24 24 23 23 25 27 30 33 34 36 39 41 43 45 45 45 46 47 48 50 52 52 52 54 54 54 55
22 24 22 20 18 19 20 19 19 18 20 19 22 23 22 23 23 22 22 24 28 30 31 33 35 36 38 40 41 43 43 42 43 45 47 48 49 49 51 53 53 54 55
24 25 22 22 22 22 21 21 19 19 21 22 23 21 22 22 22 24 26 29 31 32 33 34 36 38 40 42 43 42 42 43 44 46 46 47 48 50 51 53 54 55 56
24 25 25 23 25 24 23 22 20 21 22 23 22 21 21 22 23 26 29 32 34 36 36 37 38 39 41 42 42 43 44 46 48 50 52 53 54 55 56 56 57 58 59
28 28 27 27 26 26 24 23 22 22 23 23 22 21 23 24 26 28 32 35 37 38 39 40 42 43 44 44 45 47 49 51 53 55 56 57 59 60 62 62 62 63 64
30 29 30 30 29 28 25 25 24 23 23 23 23 24 26 28 29 31 33 36 37 39 40 41 43 44 45 46 48 51 53 56 58 58 59 61 62 64 65 66 67 67 68
30 31 31 32 32 30 27 26 26 25 24 24 25 26 28 30 33 37 38 38 38 39 40 42 42 44 46 49 52 54 55 56 57 59 61 65 68 71 73 75 76 77 77
31 33 33 33 31 30 28 28 28 27 26 26 27 29 30 32 34 34 35 38 39 40 41 42 43 46 49 52 52 53 55 58 61 64 67 71 73 76 78 80 83 86 88
30 32 34 33 30 30 29 29 29 29 29 29 30 31 33 34 35 34 35 36 37 39 40 42 45 48 50 51 53 56 60 63 66 69 72 76 80 83 86 89 92 94 96
32 33 35 32 30 30 30 30 30 30 30 30 31 32 33 33 34 34 35 36 37 39 41 45 47 48 51 54 57 61 64 68 71 74 78 81 84 87 91 94 97 100 102
34 34 34 32 31 31 31 31 31 30 31 31 32 33 33 32 34 35 36 36 37 40 42 43 47 50 52 56 60 64 68 71 75 78 82 86 91 96 101 104 106 106 104
34 35 33 31 31 31 31 32 31 31 32 33 33 32 31 32 34 35 36 37 39 39 42 45 47 51 55 59 64 68 72 75 79 83 88 93 100 104 107 104 99 96 91
36 35 34 31 30 31 32 31 31 32 33 32 31 31 32 32 33 35 37 39 40 43 46 48 52 56 59 63 67 71 74 78 82 87 93 102 108 106 101 90 73 60 54
38 35 33 31 32 31 31 30 31 32 32 31 30 30 31 32 34 35 37 40 42 45 46 50 54 57 61 64 66 71 76 80 86 92 100 109 107 96 80 64 52 50 49
37 34 32 31 32 31 31 31 32 31 30 30 29 29 30 31 33 35 38 42 44 47 50 52 56 59 63 66 70 73 77 82 90 98 106 107 92 70 60 55 51 48 47
36 33 31 32 32 31 31 32 31 30 29 28 28 29 30 31 33 36 40 43 46 49 52 54 57 60 64 67 71 75 79 85 94 103 108 91 70 54 51 50 46 46 45
36 33 33 31 31 31 32 32 30 29 28 27 28 28 29 31 34 37 41 44 48 51 54 56 58 61 65 71 76 78 78 88 99 106 105 75 54 47 46 46 42 44 44
35 33 33 32 31 31 32 31 29 28 26 27 27 28 30 31 34 38 43 47 50 52 54 57 58 63 69 74 79 84 88 91 99 110 102 56 44 41 42 42 42 43 44
35 34 32 32 31 32 32 29 28 25 26 26 27 29 30 33 37 42 47 51 53 54 55 57 62 67 73 78 81 86 93 100 103 108 89 42 40 36 39 40 42 43 42
36 32 31 32 32 33 31 28 26 25 25 26 27 29 32 35 39 44 48 53 55 56 57 60 65 70 76 81 83 88 94 103 107 103 74 42 35 34 34 37 40 43 42
34 31 32 32 33 32 29 27 26 25 26 27 28 32 34 36 40 45 50 54 55 55 59 62 68 74 79 83 87 93 100 103 104 87 68 44 35 32 32 35 38 42 41
32 31 31 32 33 30 30 27 26 26 27 29 31 33 35 37 40 45 50 53 54 57 60 64 69 75 79 82 86 92 98 105 104 83 62 43 35 31 31 34 38 40 38
30 30 31 31 31 32 28 27 26 27 29 30 33 34 36 38 42 47 51 52 54 56 58 62 68 73 78 82 87 94 99 104 99 80 57 43 38 37 32 35 39 39 36
Wind_Direction
322 318 314 313 308 307 306 302 303 303 306 302 304 305 302 301 299 298 298 296 299 299 301 302 302 299 299 295 298 295 298 295 292 290 288 285 283 281 281 280 280 279 279
318 317 311 312 310 297 299 302 299 297 293 295 295 292 288 286 285 284 290 292 299 298 294 292 290 290 299 297 289 302 294 288 289 289 288 287 286 282 279 276 275 274 274
317 311 311 313 308 297 298 294 294 290 295 289 281 287 285 284 287 290 289 290 294 291 291 295 297 297 294 296 296 297 296 288 287 287 285 284 284 284 282 279 278 277 275
309 312 312 301 299 296 299 299 297 297 289 289 290 285 288 292 290 291 297 297 293 298 300 298 295 295 298 298 297 297 296 294 292 291 290 288 286 285 284 283 283 282 279
310 316 315 302 294 291 293 294 292 292 291 293 292 295 298 293 300 303 300 297 296 298 296 294 296 298 296 297 297 296 296 297 296 293 291 291 290 288 286 284 282 280 280
304 311 316 307 300 298 296 295 296 291 294 295 297 296 294 297 302 300 302 301 302 299 296 294 297 301 304 304 305 303 302 300 298 296 294 293 291 289 287 286 285 283 280
296 307 311 305 302 298 296 295 295 292 296 295 294 294 294 298 300 301 302 302 301 298 296 295 299 303 305 305 303 303 303 300 299 298 298 297 295 293 292 290 287 284 282
292 298 306 303 301 297 293 291 291 294 294 292 292 290 293 296 300 304 304 303 302 301 301 302 304 305 306 305 303 303 303 301 299 299 297 295 293 291 289 287 285 283 282
292 298 303 302 300 296 291 289 291 293 289 288 290 291 292 295 300 303 302 302 301 302 302 302 303 303 304 303 303 302 301 300 299 298 297 296 295 293 291 290 288 286 283
292 297 301 300 298 292 288 288 290 289 287 286 287 289 293 298 302 303 303 302 302 302 303 304 303 303 303 302 302 301 300 301 300 300 299 298 297 296 295 293 290 288 286
292 296 297 295 292 287 286 288 289 289 288 286 286 287 291 294 296 297 299 300 301 302 303 303 301 301 301 302 302 304 304 303 303 302 300 298 295 293 291 290 289 289 288
294 296 294 290 284 284 286 288 290 290 288 288 290 294 296 296 298 299 301 302 301 302 303 303 304 304 305 307 309 309 307 305 302 300 299 297 296 294 292 290 288 285 282
293 292 288 286 282 284 285 288 289 288 289 292 295 296 297 298 299 301 301 302 303 305 307 307 308 308 309 311 309 308 308 307 306 304 302 300 298 297 296 293 291 288 284
288 287 282 279 280 281 286 287 286 288 291 295 297 298 298 299 301 302 305 308 310 309 310 310 310 312 312 312 313 313 312 310 309 308 306 305 305 302 300 298 296 293 288
285 283 276 273 277 280 284 283 286 290 294 296 298 297 299 301 304 306 308 311 311 311 311 312 311 312 314 316 316 316 315 315 315 314 313 312 309 307 306 303 298 292 288
278 275 270 269 273 278 281 284 287 291 294 296 297 298 301 305 308 310 313 314 316 315 315 315 314 314 316 318 319 319 319 319 317 316 317 317 317 314 310 303 298 297 300
271 265 264 268 273 277 281 285 288 292 295 295 296 299 304 308 311 315 316 316 316 316 316 315 315 316 318 320 322 322 322 321 320 320 323 323 320 315 307 303 302 300 298
265 262 264 269 274 279 281 286 289 293 293 293 297 302 305 310 315 316 316 316 316 316 315 315 315 317 320 323 325 325 324 324 324 325 327 327 321 308 304 303 303 302 300
260 259 262 268 274 278 283 286 289 290 290 293 298 303 308 313 315 316 317 317 319 318 317 317 317 320 323 326 327 327 327 328 329 330 332 328 313 304 303 303 304 304 303
259 260 264 268 273 278 283 286 288 287 289 294 300 305 309 312 316 317 319 320 319 319 319 319 320 324 327 328 329 329 329 331 332 333 335 323 309 305 303 303 305 305 306
256 259 265 270 274 277 281 284 284 284 289 295 301 304 308 313 315 317 320 320 320 320 321 321 324 328 330 330 331 332 332 334 336 335 338 320 305 305 306 304 306 308 309
255 260 265 270 274 277 280 280 280 284 288 295 299 302 308 312 316 320 322 322 322 323 324 324 328 331 332 333 334 334 335 337 338 339 341 320 308 311 311 310 313 313 312
257 259 265 270 273 276 277 276 278 281 288 292 296 302 307 313 319 322 324 325 326 326 325 329 331 333 334 335 335 336 338 340 343 342 342 331 316 314 311 313 318 319 317
253 258 263 268 272 274 274 273 274 281 285 290 297 303 308 315 321 324 327 328 327 327 326 332 334 336 337 338 338 339 342 345 347 343 340 333 320 317 314 313 318 320 318
252 257 261 266 270 273 270 268 273 280 285 292 299 304 309 316 321 325 327 328 328 328 332 335 336 338 338 339 340 341 343 344 348 344 341 336 324 323 321 317 318 323 320
250 257 262 266 269 268 266 267 273 279 286 294 300 304 308 315 320 325 328 329 328 329 332 334 336 338 339 339 341 344 346 347 348 344 341 343 333 329 326 322 317 321 322